User: anonymous   Login
Location: Unspecified
(0.0000°N, 0.0000°E)
Time: 23:07:05
(UTC+00:00)
Language:

OBJECT PF - Orbit

View from above orbital plane
View from above orbital plane
View from above satellite
View from above satellite

Ground track
Ground track

The orbit data is extracted from the following two-line orbital elements,

1 43591U 98067PF  18343.93844559 +.00010719 +00000-0 +15139-3 0  9998
2 43591 051.6375 221.0965 0006889 154.2938 205.8398 15.57130038018916
Epoch (UTC): 09 December 2018 22:31:21
Eccentricity: 0.0006889
inclination: 51.6375°
perigee height: 391 km
apogee height: 400 km
right ascension of ascending node: 221.0965°
argument of perigee: 154.2938°
revolutions per day: 15.57130038
mean anomaly at epoch: 205.8398°
orbit number at epoch: 1891

The dashed part of the orbit path shows where the satellite is in the earth's shadow,  

DLR